Simultaneous Nadir Overpasses (SNOs) Predictions

Prediction of SNOs between METOP-A and TERRA Satellite Orbit:

Table of predicted SNOs for the next 14.0 days since TLE Epoch: 1/20/2015
Index Date (METOP-A) Time (METOP-A) Lat,Lon (METOP-A) SZA (METOP-A ) Date (TERRA) Time (TERRA) Lat,Lon (TERRA) SZA (TERRA ) Distance(km) Time Diff (sec)
1 01/21/2015 13:22:28 81.31, 26.57 103.55 01/21/2015 13:22:51 81.31, 26.64 103.56 1.19 23
2 01/21/2015 14:13:08 -81.31,-165.89 76.44 01/21/2015 14:12:18 -81.31,-165.80 76.46 1.60 50
3 01/24/2015 08:56:53 81.31, 93.09 102.89 01/24/2015 08:57:06 81.31, 93.07 102.90 0.32 13
4 01/24/2015 09:47:33 -81.31, -99.37 77.10 01/24/2015 09:46:33 -81.31, -99.35 77.12 0.73 60
5 01/27/2015 04:31:17 81.31, 159.55 102.19 01/27/2015 04:31:19 81.32, 159.72 102.22 3.04 2
6 01/
